GW3840 Weather Reports


Display with metric or nautical units.
time (UTC)temp
F
wind
direction
speed
MPH
gust
MPH
rain 1hr
in
rain 24hr
in
rain mn
in
humidity
%
barometer
mb
20260507013941 40 304 1.0 1.0 0.00 0.00 0.00 56 1015.8
20260507013438 40 304 1.0 1.0 0.00 0.00 0.00 56 1015.7
20260507012935 40 304 1.0 1.0 0.00 0.00 0.00 56 1015.7
20260507012432 41 321 2.0 2.0 0.00 0.00 0.00 56 1015.5
20260507011928 41 321 2.0 2.0 0.00 0.00 0.00 56 1015.7
20260507011425 41 330 2.0 3.0 0.00 0.00 0.00 56 1015.7
20260507010920 41 313 2.0 3.0 0.00 0.00 0.00 55 1015.7
20260507010415 41 257 0.0 0.0 0.00 0.00 0.00 56 1015.5
20260507005913 41 267 0.0 1.0 0.00 0.00 0.00 55 1015.4
20260507005409 41 291 3.0 3.0 0.00 0.00 0.00 55 1015.8
20260507004906 41 282 1.0 1.0 0.00 0.00 0.00 56 1015.7
20260507004403 41 282 1.0 1.0 0.00 0.00 0.00 56 1015.7
20260507003900 41 294 2.0 4.0 0.00 0.00 0.00 53 1015.6
20260507003355 41 297 4.0 4.0 0.00 0.00 0.00 54 1015.7
20260507002851 41 297 4.0 4.0 0.00 0.00 0.00 54 1015.6
20260507002347 41 308 4.0 6.0 0.00 0.00 0.00 53 1015.7
20260507001844 41 270 3.0 3.0 0.00 0.00 0.00 54 1015.5
20260507001341 41 270 3.0 3.0 0.00 0.00 0.00 54 1015.7
20260507000838 41 270 3.0 3.0 0.00 0.00 0.00 54 1016.0
20260507000335 41 270 3.0 3.0 0.00 0.00 0.00 54 1016.0
20260506235830 41 270 3.0 3.0 0.00 0.00 0.00 54 1016.0
20260506235327 41 270 3.0 4.0 0.00 0.00 0.00 54 1016.0
20260506234823 0 0.0 0.0 0.00 0.00 0.00 1016.0
20260506234321 0 0.0 0.0 0.00 0.00 0.00 1016.2
20260506233818 0 0.0 0.0 0.00 0.00 0.00 1016.3
20260506233313 0 0.0 0.0 0.00 0.00 0.00 1016.2
20260506232810 0 0.0 0.0 0.00 0.00 0.00 1016.3
20260506232306 0 0.0 0.0 0.00 0.00 0.00 1016.1
20260506231802 0 0.0 0.0 0.00 0.00 0.00 1016.3
20260506231300 42 308 4.0 4.0 0.00 0.00 0.00 53 1016.3
20260506230757 42 308 4.0 4.0 0.00 0.00 0.00 53 1016.4
20260506230249 42 308 4.0 4.0 0.00 0.00 0.00 53 1016.3
20260506225746 42 308 4.0 4.0 0.00 0.00 0.00 53 1016.3
20260506225243 42 308 4.0 4.0 0.00 0.00 0.00 53 1016.3
20260506224739 42 308 4.0 4.0 0.00 0.00 0.00 53 1016.3
20260506224237 42 308 4.0 4.0 0.00 0.00 0.00 53 1016.4
20260506223732 42 308 4.0 4.0 0.00 0.00 0.00 53 1016.3
20260506223228 42 308 4.0 4.0 0.00 0.00 0.00 53 1016.5
20260506222725 42 308 4.0 4.0 0.00 0.00 0.00 53 1016.5
20260506222220 42 308 4.0 4.0 0.00 0.00 0.00 53 1016.5
20260506221718 42 308 4.0 4.0 0.00 0.00 0.00 53 1016.6
20260506221216 42 293 4.0 7.0 0.00 0.00 0.00 55 1016.6
20260506220708 42 258 3.0 6.0 0.00 0.00 0.00 54 1016.6
20260506220202 41 298 5.0 7.0 0.00 0.00 0.00 52 1016.5
20260506215659 42 298 5.0 6.0 0.00 0.00 0.00 54 1016.7
20260506215155 41 288 3.0 4.0 0.00 0.00 0.00 53 1016.7
20260506214652 41 247 4.0 6.0 0.00 0.00 0.00 52 1016.8
20260506214149 41 267 5.0 6.0 0.00 0.00 0.00 53 1016.7
20260506213648 41 267 5.0 6.0 0.00 0.00 0.00 53 1016.9
20260506213144 41 265 4.0 7.0 0.00 0.00 0.00 55 1016.9
20260506212642 41 280 3.0 7.0 0.00 0.00 0.00 55 1016.8
20260506212136 41 318 3.0 7.0 0.00 0.00 0.00 55 1016.8
20260506211632 41 273 8.0 10.0 0.00 0.00 0.00 53 1017.0
20260506211129 41 254 5.0 8.0 0.00 0.00 0.00 54 1017.0
20260506210627 41 297 4.0 4.0 0.00 0.00 0.00 55 1017.1
20260506210123 41 305 6.0 7.0 0.00 0.00 0.00 54 1017.4
20260506205620 41 289 7.0 11.0 0.00 0.00 0.00 54 1017.4
20260506205114 41 267 5.0 11.0 0.00 0.00 0.00 54 1017.4
20260506204613 41 311 4.0 8.0 0.00 0.00 0.00 56 1017.2
20260506204109 41 324 6.0 9.0 0.00 0.00 0.00 55 1017.1
20260506203608 40 290 4.0 8.0 0.00 0.00 0.00 54 1017.5
20260506203104 41 277 9.0 10.0 0.00 0.00 0.00 54 1017.5
20260506202602 41 310 6.0 8.0 0.00 0.00 0.00 54 1017.2
20260506202058 41 259 6.0 7.0 0.00 0.00 0.00 55 1017.4
20260506201555 41 298 6.0 9.0 0.00 0.00 0.00 55 1017.4
20260506201052 41 267 3.0 7.0 0.00 0.00 0.00 57 1017.2
20260506200548 41 277 2.0 4.0 0.00 0.00 0.00 58 1017.2
20260506200045 41 280 7.0 9.0 0.00 0.00 0.00 55 1017.4
20260506195542 41 271 4.0 10.0 0.00 0.00 0.00 54 1017.2
20260506195038 41 267 4.0 10.0 0.00 0.00 0.00 55 1017.5
20260506194536 41 249 4.0 13.0 0.00 0.00 0.00 54 1017.5
20260506194032 41 14 5.0 8.0 0.00 0.00 0.00 55 1017.1
20260506193530 41 258 4.0 9.0 0.00 0.00 0.00 55 1017.5
20260506193027 41 259 5.0 10.0 0.00 0.00 0.00 54 1017.2
20260506192523 41 257 7.0 10.0 0.00 0.00 0.00 54 1017.4
20260506192019 42 283 6.0 9.0 0.00 0.00 0.00 53 1017.2
20260506191516 41 279 6.0 8.0 0.00 0.00 0.00 54 1017.5
20260506191012 42 301 6.0 11.0 0.00 0.00 0.00 53 1017.5
20260506190510 42 264 6.0 10.0 0.00 0.00 0.00 52 1017.0
20260506190007 41 288 6.0 8.0 0.00 0.00 0.00 53 1017.5
20260506185504 42 239 3.0 8.0 0.00 0.00 0.00 53 1017.2
20260506185000 41 254 4.0 7.0 0.00 0.00 0.00 54 1017.1
20260506184457 42 286 8.0 9.0 0.00 0.00 0.00 54 1017.4
20260506183954 41 329 5.0 7.0 0.00 0.00 0.00 54 1017.5
20260506183450 41 288 6.0 8.0 0.00 0.00 0.00 52 1017.5
20260506182947 42 341 6.0 13.0 0.00 0.00 0.00 55 1017.5
20260506182444 42 305 7.0 11.0 0.00 0.00 0.00 53 1017.4
20260506181941 42 334 8.0 10.0 0.00 0.00 0.00 52 1017.2
20260506181439 41 257 6.0 10.0 0.00 0.00 0.00 53 1017.5
20260506180936 42 313 6.0 9.0 0.00 0.00 0.00 52 1017.5
20260506180432 41 264 6.0 7.0 0.00 0.00 0.00 55 1017.6
20260506175929 41 309 3.0 9.0 0.00 0.00 0.00 59 1017.5
20260506175426 41 324 6.0 13.0 0.00 0.00 0.00 54 1017.5
20260506174923 42 282 7.0 11.0 0.00 0.00 0.00 54 1017.7
20260506174421 41 251 9.0 14.0 0.00 0.00 0.00 52 1017.6
20260506173917 41 324 2.0 9.0 0.00 0.00 0.00 53 1017.7
20260506173414 41 315 6.0 10.0 0.00 0.00 0.00 53 1017.8
20260506172911 41 310 5.0 10.0 0.00 0.00 0.00 55 1017.9
20260506172408 41 247 5.0 9.0 0.00 0.00 0.00 54 1018.0
20260506171905 42 303 6.0 7.0 0.00 0.00 0.00 55 1018.0
20260506171402 40 18 6.0 9.0 0.00 0.00 0.00 56 1018.0
20260506170900 40 337 9.0 11.0 0.00 0.00 0.00 53 1018.0
20260506170355 39 357 7.0 9.0 0.00 0.00 0.00 54 1018.0
20260506165849 40 336 7.0 10.0 0.00 0.00 0.00 54 1017.9
20260506165347 39 326 6.0 10.0 0.00 0.00 0.00 56 1017.8
20260506164843 39 293 8.0 9.0 0.00 0.00 0.00 56 1018.2
20260506164339 40 336 4.0 9.0 0.00 0.00 0.00 58 1018.1
20260506163838 40 0 6.0 8.0 0.00 0.00 0.00 57 1018.1
20260506163332 39 63 4.0 10.0 0.00 0.00 0.00 59 1018.2
20260506162827 39 331 7.0 10.0 0.00 0.00 0.00 57 1018.3
20260506162325 38 305 6.0 8.0 0.00 0.00 0.00 59 1018.2
20260506161817 38 261 6.0 7.0 0.00 0.00 0.00 60 1018.3
20260506161314 37 347 6.0 9.0 0.00 0.00 0.00 60 1018.6
20260506160812 37 260 5.0 8.0 0.00 0.00 0.00 62 1018.5
20260506160308 38 231 9.0 10.0 0.00 0.00 0.00 59 1018.4
20260506155807 37 348 2.0 10.0 0.00 0.00 0.00 62 1018.3
20260506155306 37 332 9.0 14.0 0.00 0.00 0.00 60 1018.4
20260506153416 37 321 5.0 9.0 0.00 0.00 0.00 63 1018.4
20260506152913 37 299 5.0 9.0 0.00 0.00 0.00 63 1018.4
20260506152410 36 281 8.0 13.0 0.00 0.00 0.00 63 1018.3
20260506151909 36 325 6.0 8.0 0.00 0.00 0.00 62 1018.4
20260506151405 37 303 3.0 14.0 0.00 0.00 0.00 64 1018.4
20260506150903 36 271 7.0 15.0 0.00 0.00 0.00 62 1018.2
20260506150359 36 301 5.0 8.0 0.00 0.00 0.00 64 1018.5
20260506145855 36 322 4.0 7.0 0.00 0.00 0.00 65 1018.2
20260506145352 36 14 6.0 13.0 0.00 0.00 0.00 63 1018.3
20260506144849 36 297 5.0 10.0 0.00 0.00 0.00 63 1018.5
20260506144346 36 340 3.0 8.0 0.00 0.00 0.00 65 1018.4
20260506143844 36 342 4.0 8.0 0.00 0.00 0.00 64 1018.3
20260506143341 36 353 5.0 7.0 0.00 0.00 0.00 65 1018.2
20260506142839 36 265 5.0 7.0 0.00 0.00 0.00 64 1018.3
20260506142337 36 340 5.0 8.0 0.00 0.00 0.00 65 1018.2
20260506141835 36 318 6.0 8.0 0.00 0.00 0.00 64 1018.2
20260506141333 36 287 2.0 9.0 0.00 0.00 0.00 65 1018.3
20260506140831 36 15 3.0 9.0 0.00 0.00 0.00 65 1018.3
20260506140327 36 227 1.0 8.0 0.00 0.00 0.00 66 1018.2
20260506135824 35 276 5.0 9.0 0.00 0.00 0.00 65 1018.2
20260506135321 36 349 6.0 8.0 0.00 0.00 0.00 65 1018.1
20260506134817 35 309 2.0 9.0 0.00 0.00 0.00 66 1017.9
20260506134314 35 347 4.0 7.0 0.00 0.00 0.00 66 1018.1
20260506133811 35 301 7.0 10.0 0.00 0.00 0.00 67 1018.0
20260506133308 35 314 6.0 11.0 0.00 0.00 0.00 66 1018.0
20260506132804 35 340 6.0 8.0 0.00 0.00 0.00 67 1018.1
20260506132302 36 354 6.0 11.0 0.00 0.00 0.00 67 1017.8
20260506131800 35 294 2.0 7.0 0.00 0.00 0.00 68 1017.9
20260506131255 35 36 5.0 7.0 0.00 0.00 0.00 66 1018.0
20260506130752 35 293 2.0 8.0 0.00 0.00 0.00 66 1017.9
20260506130249 35 353 5.0 7.0 0.00 0.00 0.00 67 1017.9
20260506125747 35 349 2.0 8.0 0.00 0.00 0.00 67 1017.8
20260506125245 35 292 5.0 9.0 0.00 0.00 0.00 67 1017.8
20260506124743 35 346 5.0 7.0 0.00 0.00 0.00 68 1017.6
20260506124240 35 287 4.0 7.0 0.00 0.00 0.00 69 1017.7
20260506123737 35 355 3.0 6.0 0.00 0.00 0.00 69 1017.6
20260506123237 35 336 2.0 7.0 0.00 0.00 0.00 68 1017.4
20260506122732 35 326 5.0 7.0 0.00 0.00 0.00 68 1017.5
20260506122230 35 338 5.0 7.0 0.00 0.00 0.00 69 1017.2
20260506121728 35 283 2.0 8.0 0.00 0.00 0.00 69 1017.5
20260506121225 35 296 2.0 6.0 0.00 0.00 0.00 68 1017.1
20260506120722 35 300 3.0 8.0 0.00 0.00 0.00 69 1017.1
20260506120219 35 343 2.0 4.0 0.00 0.00 0.00 69 1016.9
20260506115717 35 346 4.0 7.0 0.00 0.00 0.00 70 1017.0
20260506115215 35 316 2.0 3.0 0.00 0.00 0.00 71 1017.0
20260506114712 35 358 2.0 4.0 0.00 0.00 0.00 69 1016.9
20260506114210 35 278 4.0 7.0 0.00 0.00 0.00 70 1017.0
20260506113708 35 326 3.0 7.0 0.00 0.00 0.00 71 1016.8
20260506113205 35 301 4.0 7.0 0.00 0.00 0.00 70 1016.8
20260506112701 35 357 3.0 8.0 0.00 0.00 0.00 70 1016.6
20260506112159 35 283 5.0 6.0 0.00 0.00 0.00 71 1016.6
20260506111656 35 292 3.0 6.0 0.00 0.00 0.00 72 1016.6
20260506111154 35 324 2.0 6.0 0.00 0.00 0.00 71 1016.5
20260506110651 35 342 4.0 6.0 0.00 0.00 0.00 71 1016.5
20260506110149 35 320 3.0 3.0 0.00 0.00 0.00 72 1016.5
20260506105645 35 355 2.0 3.0 0.00 0.00 0.00 72 1016.3
20260506105142 35 323 3.0 6.0 0.00 0.00 0.00 71 1016.5
20260506104641 35 272 2.0 6.0 0.00 0.00 0.00 70 1016.4
20260506104138 35 322 4.0 6.0 0.00 0.00 0.00 70 1016.4
20260506103635 35 322 3.0 6.0 0.00 0.00 0.00 70 1016.3
20260506103132 35 353 3.0 4.0 0.00 0.00 0.00 70 1016.4
20260506102630 35 297 2.0 4.0 0.00 0.00 0.00 69 1016.3
20260506102127 35 6 4.0 7.0 0.00 0.00 0.00 69 1016.3
20260506101623 35 57 0.0 6.0 0.00 0.00 0.00 71 1016.2
20260506101120 35 343 3.0 4.0 0.00 0.00 0.00 71 1016.3
20260506100619 35 335 3.0 7.0 0.00 0.00 0.00 69 1016.2
20260506100116 35 326 3.0 4.0 0.00 0.00 0.00 71 1016.4
20260506095615 35 28 2.0 3.0 0.00 0.00 0.00 71 1016.4
20260506095111 35 273 1.0 2.0 0.00 0.00 0.00 70 1016.1
20260506094609 35 333 2.0 4.0 0.00 0.00 0.00 70 1016.4
20260506094106 35 300 3.0 3.0 0.00 0.00 0.00 71 1016.3
20260506093605 35 24 1.0 2.0 0.00 0.00 0.00 71 1016.3
20260506093102 35 308 3.0 4.0 0.00 0.00 0.00 71 1016.3
20260506092559 35 286 2.0 6.0 0.00 0.00 0.00 70 1016.1
20260506092056 35 329 1.0 3.0 0.00 0.00 0.00 71 1016.3
20260506091554 35 307 3.0 4.0 0.00 0.00 0.00 71 1016.2
20260506091052 35 317 3.0 6.0 0.00 0.00 0.00 70 1016.2
20260506090549 35 319 2.0 7.0 0.00 0.00 0.00 69 1016.1
20260506090045 35 296 0.0 2.0 0.00 0.00 0.00 70 1016.3
20260506085542 35 272 3.0 6.0 0.00 0.00 0.00 68 1016.2
20260506085038 35 280 1.0 3.0 0.00 0.00 0.00 70 1016.2
20260506084536 35 347 3.0 6.0 0.00 0.00 0.00 69 1016.1
20260506084032 35 306 2.0 6.0 0.00 0.00 0.00 69 1016.1
20260506083529 35 310 2.0 3.0 0.00 0.00 0.00 70 1016.1
20260506083026 35 282 1.0 4.0 0.00 0.00 0.00 70 1016.0
20260506082523 35 262 0.0 4.0 0.00 0.00 0.00 69 1016.0
20260506082019 35 308 2.0 3.0 0.00 0.00 0.00 69 1016.0
20260506081517 35 313 1.0 4.0 0.00 0.00 0.00 70 1016.0
20260506081014 35 285 2.0 2.0 0.00 0.00 0.00 69 1016.2
20260506080512 35 347 1.0 2.0 0.00 0.00 0.00 69 1016.1
20260506073455 35 47 2.0 4.0 0.00 0.00 0.00 68 1016.1
20260506072952 35 344 2.0 6.0 0.00 0.00 0.00 68 1016.0
20260506072449 35 0 3.0 4.0 0.00 0.00 0.00 69 1015.9
20260506071947 35 17 2.0 6.0 0.00 0.00 0.00 68 1015.8
20260506071445 35 358 2.0 6.0 0.00 0.00 0.00 67 1016.0
20260506070941 35 13 3.0 6.0 0.00 0.00 0.00 66 1015.7
20260506070439 35 0 2.0 4.0 0.00 0.00 0.00 67 1015.9
20260506062416 35 38 3.0 6.0 0.00 0.00 0.00 67 1016.0
20260506061912 35 26 4.0 6.0 0.00 0.00 0.00 67 1016.1
20260506061409 35 33 3.0 4.0 0.00 0.00 0.00 68 1016.1
20260506060907 35 85 3.0 6.0 0.00 0.00 0.00 68 1016.1
20260506060404 35 21 2.0 4.0 0.00 0.00 0.00 68 1016.0
20260506051336 36 291 1.0 4.0 0.00 0.00 0.00 68 1015.7
20260506050834 36 285 2.0 3.0 0.00 0.00 0.00 67 1015.9
20260506050331 36 308 0.0 2.0 0.00 0.00 0.00 68 1015.7
20260506044822 35 245 1.0 2.0 0.00 0.00 0.00 67 1015.6
20260506044320 36 255 5.0 6.0 0.00 0.00 0.00 66 1015.8
20260506043816 36 256 2.0 3.0 0.00 0.00 0.00 66 1015.6
20260506043314 36 254 1.0 2.0 0.00 0.00 0.00 66 1015.7
20260506042812 36 277 0.0 4.0 0.00 0.00 0.00 66 1015.5
20260506042311 36 309 3.0 4.0 0.00 0.00 0.00 65 1015.4
20260506041809 36 291 2.0 4.0 0.00 0.00 0.00 65 1015.5
20260506041305 36 313 2.0 2.0 0.00 0.00 0.00 65 1015.3
20260506040803 36 295 2.0 3.0 0.00 0.00 0.00 65 1015.5
20260506040300 36 347 2.0 6.0 0.00 0.00 0.00 64 1015.4
20260506035756 36 325 2.0 6.0 0.00 0.00 0.00 64 1015.4
20260506035253 36 310 1.0 3.0 0.00 0.00 0.00 65 1015.5
20260506034750 36 339 1.0 3.0 0.00 0.00 0.00 63 1015.3
20260506034248 36 9 3.0 4.0 0.00 0.00 0.00 63 1015.5
20260506033744 36 339 2.0 2.0 0.00 0.00 0.00 63 1015.3
20260506033242 36 295 1.0 3.0 0.00 0.00 0.00 62 1015.3
20260506032738 37 331 2.0 4.0 0.00 0.00 0.00 62 1015.2
20260506032235 37 303 1.0 4.0 0.00 0.00 0.00 61 1015.1
20260506031726 37 319 2.0 4.0 0.00 0.00 0.00 61 1015.2
20260506031224 37 296 1.0 2.0 0.00 0.00 0.00 61 1015.2
20260506030722 37 257 0.0 3.0 0.00 0.00 0.00 61 1015.1
20260506030219 37 335 2.0 3.0 0.00 0.00 0.00 61 1015.2
20260506025716 37 303 1.0 2.0 0.00 0.00 0.00 60 1015.2
20260506025212 38 293 1.0 2.0 0.00 0.00 0.00 60 1015.0
20260506024709 38 331 3.0 4.0 0.00 0.00 0.00 59 1015.3
20260506024205 38 299 1.0 2.0 0.00 0.00 0.00 59 1014.9
20260506023702 38 270 0.0 3.0 0.00 0.00 0.00 59 1015.1
20260506023200 38 42 2.0 6.0 0.00 0.00 0.00 57 1014.9
20260506022656 39 267 4.0 4.0 0.00 0.00 0.00 56 1014.6
20260506022154 39 341 4.0 6.0 0.00 0.00 0.00 57 1014.7
20260506021652 39 305 2.0 4.0 0.00 0.00 0.00 56 1014.5
20260506021148 39 315 2.0 4.0 0.00 0.00 0.00 57 1014.5
20260506020640 39 354 3.0 6.0 0.00 0.00 0.00 56 1014.4
20260506020137 39 312 4.0 6.0 0.00 0.00 0.00 55 1014.5
20260506015635 39 333 2.0 6.0 0.00 0.00 0.00 55 1014.5
20260506015131 40 356 5.0 8.0 0.00 0.00 0.00 54 1014.3
20260506014629 40 11 2.0 8.0 0.00 0.00 0.00 54 1014.2